Voltar ao catálogo

STARLINK-34550

AtivoComunicaçõesVLEO
NORAD 64683·PAYLOAD·🇺🇸 United States

Lançado Jun 28, 2025 de Cape Canaveral Space Force Station

Loading…

Próximas Passagens (próximas 24 horas)

TLE

AtualizadoSource: CelesTrak SupGP

Época: Sep 14, 2026, 21:25 UTC

1 64683C 25139V   26257.89284722 -.00013287  00000+0 -39278-3 0  2572
2 64683  53.1593 323.9557 0001259  85.8517 212.7058 15.34380225    19

Acompanhe STARLINK-34550 em tempo real com AllMySat

Download on the App Store